Location: Bodest
(46.3000°N, 22.5667°E)
Time: 20:18:33
(UTC+00:00)

CZ-4 R/B - Pass Details

Date: 16 October 2021
Orbit: 531 x 595 km, 97.8° (Epoch: 29 November)

Event Time Altitude Azimuth Distance (km) Brightness Sun altitude
Rises 16:27:12 0° 139° (SE) 2,708 4.5 -8.7°
Reaches altitude 10° 16:29:28 10° 129° (SE) 1,829 3.5 -9.0°
Maximum altitude 16:32:55 30° 68° (ENE) 1,030 2.2 -9.6°
Drops below altitude 10° 16:36:28 10° 7° (N) 1,876 3.9 -10.3°
Sets 16:38:49 0° 357° (N) 2,791 4.9 -10.7°
